Date_and_time,latitude,longitude,wind_speed,RelWindDirFrom,WindDirFrom,air_pressure,air_temperature,relative_humidity,Temp,platform_speed_wrt_ground,air_pressure_at_mean_sea_level,platform_orientation
2019-03-22 23:50,50.630445,-96.980765,11.3,14.7,186,993.61,3.2,61,1.24,0.0,1021.28,90.0
2019-03-23 00:00,50.630445,-96.980765,11.8,16.7,185,993.48,3.0,63,1.24,0.0,1021.16,270.0
2019-03-23 00:10,50.6304516666667,-96.9807616666667,11.6,15.3,186,993.30,2.7,65,1.25,0.0,1020.99,270.0
2019-03-23 00:20,50.6304516666667,-96.980765,11.2,14.9,185,993.16,2.5,67,1.26,0.0,1020.86,270.0
2019-03-23 00:30,50.6304433333333,-96.98077,11.2,14.5,186,993.09,2.2,69,1.26,0.0,1020.80,270.0
2019-03-23 00:40,50.6304516666667,-96.9807716666667,11.3,14.5,186,993.04,1.9,73,1.26,0.0,1020.77,270.0
2019-03-23 00:50,50.6304383333333,-96.9807616666667,11.5,14.8,186,993.04,1.7,75,1.26,0.0,1020.78,270.0
2019-03-23 01:00,50.6304433333333,-96.9807683333333,12.1,14.3,186,992.95,1.5,77,1.26,0.0,1020.70,0.0
2019-03-23 01:10,50.6304433333333,-96.98077,11.1,14.8,187,992.91,1.3,79,1.26,0.0,1020.67,0.0
2019-03-23 01:20,50.6304433333333,-96.9807666666667,11.1,14.0,188,992.84,1.2,79,1.27,0.0,1020.60,0.0
2019-03-23 01:30,50.6304433333333,-96.9807633333333,10.0,12.7,188,992.78,1.0,80,1.27,0.0,1020.55,0.0
2019-03-23 01:40,50.6304416666667,-96.9807633333333,10.2,12.5,186,992.55,0.8,80,1.27,0.0,1020.34,0.0
2019-03-23 01:50,50.6304216666667,-96.9807516666667,11.3,14.6,187,992.50,0.7,80,1.27,0.0,1020.30,0.0
2019-03-23 02:00,50.63043,-96.98077,10.9,14.3,186,992.44,0.6,80,1.28,0.0,1020.26,161.1
2019-03-23 02:10,50.6304283333333,-96.98076,10.5,15.2,185,992.34,0.4,81,1.28,0.0,1020.18,161.1
2019-03-23 02:20,50.6304266666667,-96.9807566666667,11.1,13.7,186,992.23,0.3,82,1.28,0.0,1020.08,161.1
2019-03-23 02:30,50.63043,-96.9807566666667,11.9,16.8,186,992.14,0.1,83,1.28,0.0,1020.02,161.1
2019-03-23 02:40,50.6304316666667,-96.9807583333333,11.4,15.1,186,992.06,0.0,84,1.28,0.0,1019.96,161.1
2019-03-23 02:50,50.6304366666667,-96.98076,12.1,15.1,187,991.91,-0.1,85,1.30,0.0,1019.82,161.1
2019-03-23 03:00,50.63044,-96.9807666666667,12.8,17.2,189,991.81,-0.1,84,1.30,0.0,1019.73,90.0
2019-03-23 03:10,50.630445,-96.9807683333333,12.3,16.1,188,991.78,-0.1,84,1.30,0.0,1019.71,90.0
2019-03-23 03:20,50.6304433333333,-96.9807683333333,12.0,15.4,188,991.75,-0.3,85,1.30,0.0,1019.68,90.0
2019-03-23 03:30,50.630475,-96.98081,12.6,16.3,187,991.53,-0.4,86,1.30,0.0,1019.48,90.0
2019-03-23 03:40,50.63047,-96.9807966666667,12.2,16.1,186,991.47,-0.6,88,1.31,0.0,1019.43,90.0
2019-03-23 03:50,50.6304366666667,-96.9807766666667,12.3,15.9,188,991.46,-0.6,88,1.30,0.0,1019.42,90.0
2019-03-23 04:00,50.63043,-96.98077,11.8,15.2,187,991.33,-0.8,89,1.29,0.0,1019.31,161.1
2019-03-23 04:10,50.6304316666667,-96.9807683333333,11.1,15.9,188,991.27,-0.8,89,1.29,0.0,1019.25,161.1
2019-03-23 04:20,50.6304316666667,-96.9807633333333,10.1,13.7,189,991.15,-0.9,90,1.29,0.0,1019.14,161.1
2019-03-23 04:30,50.6304566666667,-96.9807816666667,10.3,14.7,190,991.09,-0.9,91,1.28,0.0,1019.09,161.1
2019-03-23 04:40,50.6304283333333,-96.9807716666667,10.4,13.0,192,991.15,-0.9,91,1.28,0.0,1019.16,161.1
2019-03-23 04:50,50.63042,-96.9807616666667,9.7,13.0,188,991.24,-1.1,92,1.28,0.0,1019.26,161.1
2019-03-23 05:00,50.6304216666667,-96.9807583333333,10.4,13.6,186,991.12,-1.3,94,1.28,0.0,1019.16,131.7
2019-03-23 05:10,50.630425,-96.98076,9.6,12.5,190,991.08,-1.4,95,1.26,0.0,1019.12,131.7
2019-03-23 05:20,50.630425,-96.9807616666667,10.3,13.2,191,991.02,-1.3,95,1.26,0.0,1019.06,131.7
2019-03-23 05:30,50.630425,-96.980765,10.5,12.6,191,991.00,-1.3,96,1.25,0.0,1019.05,131.7
2019-03-23 05:40,50.6304166666667,-96.9807883333333,10.9,14.1,192,990.88,-1.3,97,1.25,0.0,1018.93,131.7
2019-03-23 05:50,50.63041,-96.9808166666667,12.6,16.2,191,990.66,-1.4,98,1.24,0.0,1018.72,131.7
2019-03-23 06:00,50.6304266666667,-96.9807833333333,12.6,15.8,192,990.50,-1.4,99,1.25,0.0,1018.55,211.1
2019-03-23 06:10,50.630445,-96.9807633333333,13.6,18.3,189,990.23,-1.5,99,1.26,0.0,1018.28,211.1
2019-03-23 06:20,50.6304383333333,-96.9807666666667,12.9,16.8,191,990.20,-1.6,99,1.26,0.0,1018.26,211.1
2019-03-23 06:30,50.6304366666667,-96.98077,14.2,19.8,192,990.02,-1.5,99,1.25,0.0,1018.07,211.1
2019-03-23 06:40,50.6304383333333,-96.9807733333333,14.5,18.3,192,989.83,-1.4,99,1.26,0.0,1017.87,211.1
2019-03-23 06:50,50.6304383333333,-96.9807733333333,15.3,19.8,194,989.71,-1.3,99,1.26,0.0,1017.76,211.1
2019-03-23 07:00,50.63044,-96.9807733333333,13.8,20.4,195,989.67,-1.3,99,1.26,0.0,1017.73,360.0
2019-03-23 07:10,50.6304416666667,-96.980775,11.3,14.4,194,989.84,-1.4,99,1.26,0.0,1017.90,360.0
2019-03-23 07:20,50.630445,-96.9807833333333,9.6,13.2,201,990.09,-1.4,98,1.26,0.0,1018.15,360.0
2019-03-23 07:30,50.6304433333333,-96.9807816666667,9.2,13.3,199,990.14,-1.4,98,1.25,0.0,1018.22,360.0
2019-03-23 07:40,50.6304433333333,-96.9807766666667,10.0,13.0,195,990.00,-1.7,99,1.24,0.0,1018.09,360.0
2019-03-23 07:50,50.630445,-96.980775,10.1,14.1,194,989.95,-1.9,99,1.24,0.0,1018.05,360.0
2019-03-23 08:00,50.6304433333333,-96.9807733333333,10.2,13.9,196,989.90,-2.0,99,1.24,0.0,1018.00,327.9
2019-03-23 08:10,50.6304416666667,-96.9807733333333,8.3,11.5,194,989.93,-2.2,99,1.24,0.0,1018.05,327.9
2019-03-23 08:20,50.63044,-96.9807716666667,8.7,11.5,193,989.89,-2.3,99,1.24,0.0,1018.01,327.9
2019-03-23 08:30,50.6304366666667,-96.98077,7.8,10.2,194,989.86,-2.5,99,1.23,0.0,1017.99,327.9
2019-03-23 08:40,50.6304366666667,-96.9807683333333,8.1,10.9,193,989.78,-2.6,99,1.24,0.0,1017.90,327.9
2019-03-23 08:50,50.630425,-96.9807766666667,8.6,11.1,191,989.71,-2.7,99,1.23,0.0,1017.84,327.9
2019-03-23 09:00,50.6304266666667,-96.98078,8.7,10.9,188,989.52,-3.0,99,1.23,0.0,1017.66,0.0
2019-03-23 09:10,50.6304233333333,-96.980775,9.1,11.7,186,989.41,-3.1,99,1.23,0.0,1017.55,0.0
2019-03-23 09:20,50.6304233333333,-96.9807733333333,9.7,11.6,185,989.29,-3.2,99,1.23,0.0,1017.43,0.0
2019-03-23 09:30,50.6304233333333,-96.98077,10.8,13.6,185,989.19,-3.3,99,1.23,0.0,1017.35,0.0
2019-03-23 09:40,50.630425,-96.98077,10.6,13.6,186,989.09,-3.3,99,1.23,0.0,1017.26,0.0
2019-03-23 09:50,50.6304266666667,-96.98077,10.4,13.4,186,988.96,-3.4,99,1.23,0.0,1017.13,0.0
2019-03-23 10:00,50.6304333333333,-96.9807716666667,9.8,12.8,188,988.81,-3.4,99,1.23,0.0,1016.99,360.0
2019-03-23 10:10,50.6304416666667,-96.980765,9.2,11.7,188,988.79,-3.3,99,1.22,0.0,1016.97,360.0
2019-03-23 10:20,50.6304416666667,-96.9807616666667,9.8,13.2,187,988.68,-3.3,99,1.21,0.0,1016.88,360.0
2019-03-23 10:30,50.63044,-96.980765,8.9,12.8,190,988.78,-3.3,99,1.19,0.0,1016.97,360.0
2019-03-23 10:40,50.63044,-96.980765,9.2,11.7,191,988.71,-3.2,99,1.19,0.0,1016.91,360.0
2019-03-23 10:50,50.63044,-96.980765,10.7,14.2,192,988.63,-3.2,99,1.19,0.0,1016.84,360.0
2019-03-23 11:00,50.6304416666667,-96.9807666666667,12.5,15.8,190,988.35,-3.3,99,1.20,0.0,1016.56,90.0
2019-03-23 11:10,50.63044,-96.980765,14.2,18.4,191,988.24,-3.3,99,1.20,0.0,1016.45,90.0
2019-03-23 11:20,50.63043,-96.9807716666667,14.9,19.1,191,988.03,-3.3,99,1.21,0.0,1016.24,90.0
2019-03-23 11:30,50.6304266666667,-96.9807983333333,14.4,18.7,190,988.04,-3.4,99,1.21,0.0,1016.26,90.0
2019-03-23 11:40,50.6304366666667,-96.9807666666667,12.3,15.2,192,988.27,-3.3,99,1.21,0.0,1016.50,90.0
2019-03-23 11:50,50.6304433333333,-96.9807733333333,13.2,16.4,192,988.12,-3.4,99,1.21,0.0,1016.34,90.0
2019-03-23 12:00,50.6304383333333,-96.9807666666667,10.6,14.6,195,988.30,-3.4,99,1.20,0.0,1016.53,31.1
2019-03-23 12:10,50.6304366666667,-96.9807666666667,9.7,12.3,194,988.49,-3.4,99,1.19,0.0,1016.72,31.1
2019-03-23 12:20,50.63044,-96.980765,9.2,12.8,193,988.43,-3.6,99,1.19,0.0,1016.67,31.1
2019-03-23 12:30,50.6304416666667,-96.980765,10.1,13.3,189,988.38,-3.7,99,1.19,0.0,1016.62,31.1
2019-03-23 12:40,50.6304066666667,-96.9807966666667,9.7,13.1,191,988.35,-3.7,99,1.19,0.0,1016.59,31.1
2019-03-23 12:50,50.6304116666667,-96.9807483333333,12.0,15.5,189,988.25,-3.8,99,1.19,0.0,1016.49,31.1
2019-03-23 13:00,50.6304416666667,-96.9807616666667,11.0,14.4,186,988.18,-3.8,99,1.19,0.0,1016.42,48.3
2019-03-23 13:10,50.6304433333333,-96.9807616666667,11.0,15.2,184,988.14,-3.8,99,1.19,0.0,1016.38,48.3
2019-03-23 13:20,50.6304416666667,-96.9807616666667,13.3,16.6,186,987.81,-3.7,98,1.19,0.0,1016.04,48.3
2019-03-23 13:30,50.6304433333333,-96.9807633333333,13.1,16.6,185,987.71,-3.5,97,1.19,0.0,1015.93,48.3
2019-03-23 13:40,50.6304433333333,-96.9807616666667,10.9,16.0,192,987.79,-3.3,96,1.18,0.0,1016.00,48.3
2019-03-23 13:50,50.6304433333333,-96.9807616666667,10.7,14.1,195,987.70,-2.9,92,1.17,0.0,1015.88,48.3
2019-03-23 14:00,50.6304416666667,-96.9807633333333,9.7,14.3,195,987.66,-2.5,90,1.16,0.0,1015.82,0.0
2019-03-23 14:10,50.6304433333333,-96.9808166666667,10.3,13.7,201,987.67,-2.1,87,1.15,0.0,1015.83,0.0
2019-03-23 14:20,50.6304483333333,-96.980785,9.5,13.0,205,987.70,-1.8,85,1.16,0.0,1015.85,0.0
2019-03-23 14:30,50.6304183333333,-96.98076,9.0,14.2,204,987.67,-1.4,82,1.16,0.0,1015.80,0.0
2019-03-23 14:40,50.630425,-96.9807716666667,10.8,14.6,203,987.64,-1.2,81,1.16,0.0,1015.75,0.0
2019-03-23 14:50,50.630425,-96.9807733333333,8.2,12.8,207,987.72,-1.1,81,1.14,0.0,1015.84,0.0
2019-03-23 15:00,50.6304266666667,-96.980775,5.6,8.5,205,987.75,-0.8,80,1.13,0.0,1015.85,360.0
2019-03-23 15:10,50.63044,-96.98077,6.5,9.9,197,987.62,-0.5,78,1.12,0.0,1015.69,360.0
2019-03-23 15:20,50.63044,-96.9807716666667,8.7,11.2,189,987.40,-0.3,78,1.13,0.0,1015.45,360.0
2019-03-23 15:30,50.6304416666667,-96.980775,9.1,12.9,189,987.29,-0.1,78,1.13,0.0,1015.31,360.0
2019-03-23 15:40,50.6304433333333,-96.980775,7.9,10.5,187,987.18,0.2,79,1.14,0.0,1015.17,360.0
2019-03-23 15:50,50.6304433333333,-96.9807766666667,7.2,10.1,198,987.23,0.7,74,1.14,0.0,1015.17,360.0
2019-03-23 16:00,50.6304416666667,-96.9807766666667,7.8,10.1,186,987.24,1.1,73,1.15,0.0,1015.14,270.0
2019-03-23 16:10,50.6304416666667,-96.9807783333333,7.2,8.6,178,987.29,1.1,78,1.16,0.0,1015.17,270.0
2019-03-23 16:20,50.6304416666667,-96.9807783333333,8.5,10.2,175,987.35,1.2,77,1.16,0.0,1015.21,270.0
2019-03-23 16:30,50.63044,-96.9807783333333,8.7,11.3,173,987.34,1.4,78,1.14,0.0,1015.18,270.0
2019-03-23 16:40,50.6304533333333,-96.98076,9.0,11.2,177,987.35,1.6,77,1.12,0.0,1015.18,270.0
2019-03-23 16:50,50.6304466666667,-96.980775,10.0,11.7,180,987.32,1.8,77,1.12,0.0,1015.12,270.0
2019-03-23 17:00,50.6304433333333,-96.9807666666667,7.8,9.9,184,987.47,2.0,77,1.12,0.0,1015.25,0.0
2019-03-23 17:10,50.6304433333333,-96.98077,8.1,10.7,177,987.60,2.3,76,1.11,0.0,1015.35,0.0
2019-03-23 17:20,50.6304216666667,-96.9807583333333,9.8,11.8,177,987.60,2.6,74,1.12,0.0,1015.34,0.0
2019-03-23 17:30,50.63043,-96.9807583333333,8.7,11.3,181,987.68,2.8,75,1.13,0.0,1015.39,0.0
2019-03-23 17:40,50.6304333333333,-96.98079,7.2,8.3,180,987.70,3.1,74,1.14,0.0,1015.36,0.0
2019-03-23 17:50,50.6304416666667,-96.980765,7.0,8.3,175,987.67,3.5,73,1.15,0.0,1015.29,0.0
2019-03-23 18:00,50.6304433333333,-96.9807683333333,6.6,7.5,173,987.64,3.9,71,1.16,0.0,1015.25,23.5
2019-03-23 18:10,50.6304416666667,-96.9807666666667,7.9,9.0,172,987.59,4.1,70,1.17,0.0,1015.18,23.5
2019-03-23 18:20,50.63044,-96.9807666666667,8.0,9.4,172,987.60,4.3,69,1.18,0.0,1015.16,23.5
2019-03-23 18:30,50.6304416666667,-96.980765,7.4,8.2,173,987.60,4.6,67,1.19,0.0,1015.14,23.5
2019-03-23 18:40,50.6304416666667,-96.9807633333333,7.4,8.8,173,987.61,4.8,68,1.18,0.0,1015.13,23.5
2019-03-23 18:50,50.6304433333333,-96.980765,7.6,9.0,176,987.68,5.0,67,1.17,0.0,1015.19,23.5
2019-03-23 19:00,50.630445,-96.9807666666667,8.3,9.6,175,987.70,5.0,68,1.16,0.0,1015.19,90.0
2019-03-23 19:10,50.630445,-96.9807683333333,9.1,10.4,178,987.68,5.0,69,1.16,0.0,1015.15,90.0
2019-03-23 19:20,50.63045,-96.98079,9.3,10.4,175,987.59,5.2,68,1.17,0.0,1015.04,90.0
2019-03-23 19:30,50.63042,-96.9807616666667,9.1,10.9,180,987.53,5.4,68,1.17,0.0,1014.95,90.0
2019-03-23 19:40,50.630445,-96.9807683333333,8.2,9.5,173,987.59,5.6,68,1.16,0.0,1014.98,90.0
2019-03-23 19:50,50.6304466666667,-96.98077,6.2,7.2,171,987.69,6.0,66,1.17,0.0,1015.05,90.0
2019-03-23 20:00,50.630445,-96.9807666666667,5.6,7.0,165,987.83,6.3,65,1.17,0.0,1015.17,0.0
2019-03-23 20:10,50.630445,-96.980765,4.8,6.5,122,987.90,5.6,77,1.19,0.0,1015.26,0.0
2019-03-23 20:20,50.6304466666667,-96.9807633333333,5.4,7.2,130,987.87,4.4,82,1.20,0.0,1015.28,0.0
2019-03-23 20:30,50.6304466666667,-96.9807633333333,5.3,6.9,140,987.88,4.6,76,1.21,0.0,1015.26,0.0
2019-03-23 20:40,50.6304466666667,-96.9807633333333,5.7,7.4,142,987.98,4.9,75,1.22,0.0,1015.34,0.0
2019-03-23 20:50,50.6304466666667,-96.9807633333333,5.8,6.7,146,987.98,4.9,76,1.23,0.0,1015.35,0.0
2019-03-23 21:00,50.6304483333333,-96.9807633333333,6.4,7.8,145,988.05,5.3,75,1.24,0.0,1015.39,360.0
2019-03-23 21:10,50.6304483333333,-96.9807633333333,6.3,7.9,136,988.12,4.7,80,1.25,0.0,1015.49,360.0
2019-03-23 21:20,50.6304483333333,-96.980765,5.5,7.0,102,988.25,4.5,86,1.26,0.0,1015.62,360.0
2019-03-23 21:30,50.6304483333333,-96.9807633333333,3.4,5.7,117,988.30,4.5,87,1.26,0.0,1015.66,360.0
2019-03-23 21:40,50.63045,-96.9807633333333,5.8,7.0,130,988.36,4.1,88,1.26,0.0,1015.73,360.0
2019-03-23 21:50,50.6304483333333,-96.9807633333333,4.7,6.4,149,988.40,3.7,90,1.26,0.0,1015.77,360.0
2019-03-23 22:00,50.630455,-96.98076,2.8,6.2,120,988.49,4.2,88,1.27,0.0,1015.87,14.5
2019-03-23 22:10,50.63045,-96.980755,3.2,4.3,123,988.59,5.0,85,1.27,0.0,1016.00,14.5
2019-03-23 22:20,50.6304466666667,-96.98076,2.2,3.5,92,988.68,5.0,85,1.28,0.0,1016.08,14.5
2019-03-23 22:30,50.6304466666667,-96.98076,2.6,3.7,98,988.85,5.3,83,1.29,0.0,1016.23,14.5
2019-03-23 22:40,50.630445,-96.9807633333333,2.4,3.7,128,989.00,4.9,87,1.30,0.0,1016.40,14.5
2019-03-23 22:50,50.630445,-96.9807616666667,1.8,3.5,118,989.14,5.5,81,1.30,0.0,1016.49,14.5
2019-03-23 23:00,50.630445,-96.980765,1.2,3.3,120,989.33,5.8,80,1.30,0.0,1016.70,0.0
2019-03-23 23:10,50.6304466666667,-96.9807666666667,1.0,3.8,29,989.54,5.4,82,1.31,0.0,1016.95,0.0
2019-03-23 23:20,50.6304466666667,-96.980765,2.9,5.7,20,989.75,3.9,92,1.32,0.0,1017.24,0.0
2019-03-23 23:30,50.6304483333333,-96.980765,4.0,5.3,2,989.91,2.6,99,1.32,0.0,1017.49,0.0
